Time,TemperatureF,DewpointF,PressureIn,WindDirection,WindDirectionDegrees,WindSpeedMPH,WindSpeedGustMPH,Humidity,HourlyPrecipIn,Conditions,Clouds,dailyrainin,SoftwareType,DateUTC
2013-09-27 00:01:00,70.4,61.7,29.96,SE,135,6.0,7.6,74,0.00,,,0.00,WUHU216HW,2013-09-27 05:01:00,
2013-09-27 00:06:00,70.4,62.0,29.96,ESE,113,4.0,7.6,75,0.00,,,0.00,WUHU216HW,2013-09-27 05:06:00,
2013-09-27 00:11:00,70.4,62.0,29.96,SSE,158,6.7,6.7,75,0.00,,,0.00,WUHU216HW,2013-09-27 05:11:00,
2013-09-27 00:16:00,70.2,61.8,29.96,SSE,158,5.4,6.7,75,0.00,,,0.00,WUHU216HW,2013-09-27 05:16:00,
2013-09-27 00:21:00,70.2,61.8,29.96,ESE,113,4.7,7.6,75,0.00,,,0.00,WUHU216HW,2013-09-27 05:21:00,
2013-09-27 00:26:00,70.2,61.8,29.96,ESE,113,3.1,7.6,75,0.00,,,0.00,WUHU216HW,2013-09-27 05:26:00,
2013-09-27 00:31:00,70.0,61.7,29.96,ESE,113,5.8,7.2,75,0.00,,,0.00,WUHU216HW,2013-09-27 05:31:00,
2013-09-27 00:36:00,70.0,61.7,29.97,SE,135,5.8,7.2,75,0.00,,,0.00,WUHU216HW,2013-09-27 05:36:00,
2013-09-27 00:41:00,70.0,61.7,29.97,SE,135,3.6,6.9,75,0.00,,,0.00,WUHU216HW,2013-09-27 05:41:00,
2013-09-27 00:46:00,69.8,61.8,29.97,ESE,113,6.0,6.0,76,0.00,,,0.00,WUHU216HW,2013-09-27 05:46:00,
2013-09-27 00:51:00,69.8,61.8,29.97,SE,135,5.4,6.0,76,0.00,,,0.00,WUHU216HW,2013-09-27 05:51:00,
2013-09-27 00:57:00,69.7,61.7,29.97,ESE,113,4.3,6.0,76,0.00,,,0.00,WUHU216HW,2013-09-27 05:57:00,
2013-09-27 01:02:00,69.7,61.7,29.97,ESE,113,4.5,6.5,76,0.00,,,0.00,WUHU216HW,2013-09-27 06:02:00,
2013-09-27 01:07:00,69.5,61.6,29.97,SSE,158,5.8,6.5,76,0.00,,,0.00,WUHU216HW,2013-09-27 06:07:00,
2013-09-27 01:12:00,69.5,61.9,29.97,SE,135,3.4,8.5,77,0.00,,,0.00,WUHU216HW,2013-09-27 06:12:00,
2013-09-27 01:17:00,69.3,61.7,29.97,SE,135,5.4,8.5,77,0.00,,,0.00,WUHU216HW,2013-09-27 06:17:00,
2013-09-27 01:22:00,69.3,61.7,29.97,SE,135,6.3,7.6,77,0.00,,,0.00,WUHU216HW,2013-09-27 06:22:00,
2013-09-27 01:27:00,69.3,61.7,29.97,SE,135,5.6,7.6,77,0.00,,,0.00,WUHU216HW,2013-09-27 06:27:00,
2013-09-27 01:31:00,69.1,61.6,29.97,ESE,113,4.7,7.2,77,0.00,,,0.00,WUHU216HW,2013-09-27 06:31:00,
2013-09-27 01:36:00,68.9,61.4,29.97,SE,135,5.8,8.7,77,0.00,,,0.00,WUHU216HW,2013-09-27 06:36:00,
2013-09-27 01:42:00,68.9,61.8,29.97,ESE,113,4.3,8.7,78,0.00,,,0.00,WUHU216HW,2013-09-27 06:42:00,
2013-09-27 01:47:00,68.8,61.7,29.98,SE,135,6.7,6.7,78,0.00,,,0.00,WUHU216HW,2013-09-27 06:47:00,
2013-09-27 01:52:00,68.6,61.8,29.98,SE,135,6.5,7.4,79,0.00,,,0.00,WUHU216HW,2013-09-27 06:52:00,
2013-09-27 01:57:00,68.4,61.7,29.98,SE,135,6.5,8.9,79,0.00,,,0.00,WUHU216HW,2013-09-27 06:57:00,
2013-09-27 02:01:00,68.4,61.7,29.98,ESE,113,4.7,8.9,79,0.00,,,0.00,WUHU216HW,2013-09-27 07:01:00,
2013-09-27 02:06:00,68.2,61.9,29.98,SSE,158,4.0,6.9,80,0.00,,,0.00,WUHU216HW,2013-09-27 07:06:00,
2013-09-27 02:11:00,68.2,61.9,29.98,ESE,113,7.8,7.8,80,0.00,,,0.00,WUHU216HW,2013-09-27 07:11:00,
2013-09-27 02:17:00,68.0,61.7,29.98,SE,135,6.7,7.8,80,0.00,,,0.00,WUHU216HW,2013-09-27 07:17:00,
2013-09-27 02:21:00,68.0,61.7,29.98,ESE,113,5.4,7.8,80,0.00,,,0.00,WUHU216HW,2013-09-27 07:21:00,
2013-09-27 02:26:00,67.9,61.6,29.98,SE,135,5.4,6.7,80,0.00,,,0.00,WUHU216HW,2013-09-27 07:26:00,
2013-09-27 02:31:00,67.7,61.4,29.98,SE,135,4.0,5.4,80,0.00,,,0.00,WUHU216HW,2013-09-27 07:31:00,
2013-09-27 02:37:00,67.7,61.8,29.98,SE,135,4.0,6.0,81,0.00,,,0.00,WUHU216HW,2013-09-27 07:37:00,
2013-09-27 02:42:00,67.7,61.8,29.98,SE,135,5.4,6.9,81,0.00,,,0.00,WUHU216HW,2013-09-27 07:42:00,
2013-09-27 02:47:00,67.7,61.4,29.98,ESE,113,6.0,6.9,80,0.00,,,0.00,WUHU216HW,2013-09-27 07:47:00,
2013-09-27 02:49:00,67.7,61.8,29.98,SE,135,5.4,6.9,81,0.00,,,0.00,WUHU216HW,2013-09-27 07:49:00,
2013-09-27 02:54:00,67.7,61.8,29.98,SE,135,6.3,6.3,81,0.00,,,0.00,WUHU216HW,2013-09-27 07:54:00,
2013-09-27 02:59:00,67.7,61.8,29.98,SE,135,6.3,6.9,81,0.00,,,0.00,WUHU216HW,2013-09-27 07:59:00,
2013-09-27 03:04:00,67.5,61.6,29.98,SSE,158,4.7,6.9,81,0.00,,,0.00,WUHU216HW,2013-09-27 08:04:00,
2013-09-27 03:09:00,67.5,61.6,29.98,SE,135,5.6,6.3,81,0.00,,,0.00,WUHU216HW,2013-09-27 08:09:00,
2013-09-27 03:14:00,67.5,61.6,29.98,ESE,113,7.4,8.5,81,0.00,,,0.00,WUHU216HW,2013-09-27 08:14:00,
2013-09-27 03:19:00,67.3,61.7,29.98,ESE,113,6.9,8.5,82,0.00,,,0.00,WUHU216HW,2013-09-27 08:19:00,
2013-09-27 03:24:00,67.3,61.4,29.98,SE,135,4.9,7.8,81,0.00,,,0.00,WUHU216HW,2013-09-27 08:24:00,
2013-09-27 03:29:00,67.3,61.7,29.98,SE,135,7.4,7.8,82,0.00,,,0.00,WUHU216HW,2013-09-27 08:29:00,
2013-09-27 03:34:00,67.3,61.7,29.98,SE,135,7.4,7.6,82,0.00,,,0.00,WUHU216HW,2013-09-27 08:34:00,
2013-09-27 03:39:00,67.1,61.5,29.98,SE,135,8.1,8.1,82,0.00,,,0.00,WUHU216HW,2013-09-27 08:39:00,
2013-09-27 03:44:00,67.1,61.5,29.98,ESE,113,6.9,8.1,82,0.00,,,0.00,WUHU216HW,2013-09-27 08:44:00,
2013-09-27 03:49:00,67.0,61.3,29.98,SE,135,4.7,8.5,82,0.00,,,0.00,WUHU216HW,2013-09-27 08:49:00,
2013-09-27 03:54:00,67.0,61.3,29.98,SE,135,7.2,8.5,82,0.00,,,0.00,WUHU216HW,2013-09-27 08:54:00,
2013-09-27 03:59:00,67.0,61.3,29.98,SE,135,8.3,8.3,82,0.00,,,0.00,WUHU216HW,2013-09-27 08:59:00,
2013-09-27 04:04:00,67.1,61.5,29.98,SE,135,4.0,8.3,82,0.00,,,0.00,WUHU216HW,2013-09-27 09:04:00,
2013-09-27 04:09:00,67.0,61.3,29.98,SE,135,5.4,8.3,82,0.00,,,0.00,WUHU216HW,2013-09-27 09:09:00,
2013-09-27 04:14:00,67.0,61.7,29.98,SE,135,5.4,7.8,83,0.00,,,0.00,WUHU216HW,2013-09-27 09:14:00,
2013-09-27 04:19:00,67.0,61.3,29.98,SE,135,7.6,7.8,82,0.00,,,0.00,WUHU216HW,2013-09-27 09:19:00,
2013-09-27 04:24:00,67.0,61.3,29.98,ESE,113,6.7,8.5,82,0.00,,,0.00,WUHU216HW,2013-09-27 09:24:00,
2013-09-27 04:29:00,67.0,61.3,29.98,SE,135,5.4,8.5,82,0.00,,,0.00,WUHU216HW,2013-09-27 09:29:00,
2013-09-27 04:34:00,67.0,61.3,29.99,ESE,113,6.0,6.9,82,0.00,,,0.00,WUHU216HW,2013-09-27 09:34:00,
2013-09-27 04:39:00,67.1,61.5,29.99,SE,135,5.4,6.7,82,0.00,,,0.00,WUHU216HW,2013-09-27 09:39:00,
2013-09-27 04:44:00,67.1,61.5,29.99,SE,135,4.5,9.2,82,0.00,,,0.00,WUHU216HW,2013-09-27 09:44:00,
2013-09-27 04:49:00,67.1,61.5,29.99,SE,135,4.5,9.2,82,0.00,,,0.00,WUHU216HW,2013-09-27 09:49:00,
2013-09-27 04:54:00,67.1,61.5,29.99,ESE,113,4.9,7.8,82,0.00,,,0.00,WUHU216HW,2013-09-27 09:54:00,
2013-09-27 04:59:00,67.0,61.3,29.99,SE,135,6.9,7.6,82,0.00,,,0.00,WUHU216HW,2013-09-27 09:59:00,
2013-09-27 05:04:00,67.0,61.7,29.99,SE,135,4.3,7.6,83,0.00,,,0.00,WUHU216HW,2013-09-27 10:04:00,
2013-09-27 05:09:00,67.0,61.7,29.99,ESE,113,6.3,6.9,83,0.00,,,0.00,WUHU216HW,2013-09-27 10:09:00,
2013-09-27 05:14:00,67.0,61.7,29.99,SSE,158,3.6,6.3,83,0.00,,,0.00,WUHU216HW,2013-09-27 10:14:00,
2013-09-27 05:19:00,66.8,61.5,29.99,SE,135,9.2,9.2,83,0.00,,,0.00,WUHU216HW,2013-09-27 10:19:00,
2013-09-27 05:24:00,66.8,61.5,29.99,SE,135,5.6,9.2,83,0.00,,,0.00,WUHU216HW,2013-09-27 10:24:00,
2013-09-27 05:29:00,66.6,61.3,29.99,ESE,113,3.6,9.2,83,0.00,,,0.00,WUHU216HW,2013-09-27 10:29:00,
2013-09-27 05:34:00,66.6,61.3,30.00,South,180,5.4,6.5,83,0.00,,,0.00,WUHU216HW,2013-09-27 10:34:00,
2013-09-27 05:39:00,66.6,61.3,30.00,SE,135,5.1,6.5,83,0.00,,,0.00,WUHU216HW,2013-09-27 10:39:00,
2013-09-27 05:44:00,66.6,61.3,30.00,SE,135,3.4,6.3,83,0.00,,,0.00,WUHU216HW,2013-09-27 10:44:00,
2013-09-27 05:49:00,66.6,61.3,30.00,East,90,3.8,6.3,83,0.00,,,0.00,WUHU216HW,2013-09-27 10:49:00,
2013-09-27 05:54:00,66.6,61.3,30.00,SSE,158,3.4,6.3,83,0.00,,,0.00,WUHU216HW,2013-09-27 10:54:00,
2013-09-27 05:59:00,66.6,61.3,30.00,SSE,158,3.1,5.8,83,0.00,,,0.00,WUHU216HW,2013-09-27 10:59:00,
2013-09-27 06:04:00,66.6,61.3,30.00,SE,135,2.5,6.9,83,0.00,,,0.00,WUHU216HW,2013-09-27 11:04:00,
2013-09-27 06:09:00,66.6,61.3,30.00,SE,135,6.7,8.3,83,0.00,,,0.00,WUHU216HW,2013-09-27 11:09:00,
2013-09-27 06:14:00,66.6,61.3,30.00,SSE,158,4.3,8.3,83,0.00,,,0.00,WUHU216HW,2013-09-27 11:14:00,
2013-09-27 06:19:00,66.6,61.3,30.00,SSE,158,4.0,6.0,83,0.00,,,0.00,WUHU216HW,2013-09-27 11:19:00,
2013-09-27 06:24:00,66.8,61.5,30.00,SE,135,4.9,6.7,83,0.00,,,0.00,WUHU216HW,2013-09-27 11:24:00,
2013-09-27 06:29:00,67.0,61.7,30.00,SE,135,5.1,6.7,83,0.00,,,0.00,WUHU216HW,2013-09-27 11:29:00,
2013-09-27 06:34:00,66.8,61.5,30.00,SE,135,9.8,9.8,83,0.00,,,0.00,WUHU216HW,2013-09-27 11:34:00,
2013-09-27 06:39:00,67.0,61.7,30.00,SE,135,7.4,9.8,83,0.00,,,0.00,WUHU216HW,2013-09-27 11:39:00,
2013-09-27 06:44:00,67.0,61.3,30.00,SSE,158,6.3,9.8,82,0.00,,,0.00,WUHU216HW,2013-09-27 11:44:00,
2013-09-27 06:49:00,67.0,61.3,30.00,SE,135,4.7,8.1,82,0.00,,,0.00,WUHU216HW,2013-09-27 11:49:00,
2013-09-27 06:54:00,67.0,61.3,30.00,SE,135,3.6,6.3,82,0.00,,,0.00,WUHU216HW,2013-09-27 11:54:00,
2013-09-27 06:59:00,67.0,61.3,30.00,SE,135,4.7,5.1,82,0.00,,,0.00,WUHU216HW,2013-09-27 11:59:00,
2013-09-27 07:04:00,67.1,61.5,30.00,SE,135,5.4,5.8,82,0.00,,,0.00,WUHU216HW,2013-09-27 12:04:00,
2013-09-27 07:09:00,67.1,61.5,30.00,SE,135,9.2,9.2,82,0.00,,,0.00,WUHU216HW,2013-09-27 12:09:00,
2013-09-27 07:14:00,67.1,61.2,30.00,SE,135,9.2,9.2,81,0.00,,,0.00,WUHU216HW,2013-09-27 12:14:00,
2013-09-27 07:19:00,67.1,61.2,30.00,SSE,158,4.7,9.2,81,0.00,,,0.00,WUHU216HW,2013-09-27 12:19:00,
2013-09-27 07:24:00,67.1,61.2,30.01,SSE,158,5.1,9.2,81,0.00,,,0.00,WUHU216HW,2013-09-27 12:24:00,
2013-09-27 07:29:00,67.3,61.4,30.01,SE,135,5.6,6.7,81,0.00,,,0.00,WUHU216HW,2013-09-27 12:29:00,
2013-09-27 07:34:00,67.3,61.4,30.01,ESE,113,4.9,5.6,81,0.00,,,0.00,WUHU216HW,2013-09-27 12:34:00,
2013-09-27 07:39:00,67.3,61.4,30.01,SE,135,6.3,6.7,81,0.00,,,0.00,WUHU216HW,2013-09-27 12:39:00,
2013-09-27 07:44:00,67.3,61.4,30.01,SE,135,4.3,6.7,81,0.00,,,0.00,WUHU216HW,2013-09-27 12:44:00,
2013-09-27 07:49:00,67.3,61.4,30.01,SE,135,3.6,6.3,81,0.00,,,0.00,WUHU216HW,2013-09-27 12:49:00,
2013-09-27 07:54:00,67.3,61.4,30.02,South,180,6.0,6.7,81,0.00,,,0.00,WUHU216HW,2013-09-27 12:54:00,
2013-09-27 07:59:00,67.7,61.4,30.02,SE,135,4.5,6.7,80,0.00,,,0.00,WUHU216HW,2013-09-27 12:59:00,
2013-09-27 08:04:00,67.7,61.4,30.02,SSE,158,4.0,5.1,80,0.00,,,0.00,WUHU216HW,2013-09-27 13:04:00,
2013-09-27 08:09:00,67.7,61.4,30.02,ESE,113,6.3,6.3,80,0.00,,,0.00,WUHU216HW,2013-09-27 13:09:00,
2013-09-27 08:14:00,67.9,61.6,30.02,SSE,158,4.3,6.3,80,0.00,,,0.00,WUHU216HW,2013-09-27 13:14:00,
2013-09-27 08:19:00,68.0,61.7,30.02,ESE,113,5.6,8.3,80,0.00,,,0.00,WUHU216HW,2013-09-27 13:19:00,
2013-09-27 08:24:00,68.0,61.7,30.02,South,180,4.5,8.3,80,0.00,,,0.00,WUHU216HW,2013-09-27 13:24:00,
2013-09-27 08:29:00,68.2,61.9,30.02,SE,135,5.1,5.8,80,0.00,,,0.00,WUHU216HW,2013-09-27 13:29:00,
2013-09-27 08:34:00,68.4,62.1,30.02,ESE,113,7.2,7.2,80,0.00,,,0.00,WUHU216HW,2013-09-27 13:34:00,
2013-09-27 08:39:00,68.6,61.8,30.02,ESE,113,7.8,7.8,79,0.00,,,0.00,WUHU216HW,2013-09-27 13:39:00,
2013-09-27 08:44:00,68.8,62.0,30.02,East,90,3.4,7.8,79,0.00,,,0.00,WUHU216HW,2013-09-27 13:44:00,
2013-09-27 08:49:00,69.1,62.4,30.02,SSE,158,3.4,7.8,79,0.00,,,0.00,WUHU216HW,2013-09-27 13:49:00,
2013-09-27 08:54:00,69.3,62.1,30.02,ESE,113,5.8,6.0,78,0.00,,,0.00,WUHU216HW,2013-09-27 13:54:00,
2013-09-27 08:59:00,69.5,61.9,30.02,SE,135,6.9,6.9,77,0.00,,,0.00,WUHU216HW,2013-09-27 13:59:00,
2013-09-27 09:04:00,69.7,62.1,30.02,ESE,113,5.1,6.9,77,0.00,,,0.00,WUHU216HW,2013-09-27 14:04:00,
2013-09-27 09:09:00,70.2,62.2,30.02,SE,135,2.9,6.9,76,0.00,,,0.00,WUHU216HW,2013-09-27 14:09:00,
2013-09-27 09:14:00,70.6,62.2,30.02,ESE,113,5.6,12.3,75,0.00,,,0.00,WUHU216HW,2013-09-27 14:14:00,
2013-09-27 09:19:00,70.9,62.2,30.02,SE,135,7.6,12.3,74,0.00,,,0.00,WUHU216HW,2013-09-27 14:19:00,
2013-09-27 09:24:00,71.1,62.4,30.02,SSE,158,3.4,9.8,74,0.00,,,0.00,WUHU216HW,2013-09-27 14:24:00,
2013-09-27 09:29:00,71.5,62.4,30.02,SE,135,6.5,8.7,73,0.00,,,0.00,WUHU216HW,2013-09-27 14:29:00,
2013-09-27 09:34:00,71.8,62.3,30.02,SSE,158,7.4,9.2,72,0.00,,,0.00,WUHU216HW,2013-09-27 14:34:00,
2013-09-27 09:39:00,72.2,63.5,30.02,SW,225,4.7,9.2,74,0.00,,,0.00,WUHU216HW,2013-09-27 14:39:00,
2013-09-27 09:44:00,72.7,62.8,30.02,SSE,158,8.1,12.8,71,0.00,,,0.00,WUHU216HW,2013-09-27 14:44:00,
2013-09-27 09:49:00,72.9,63.0,30.03,SSE,158,7.6,12.8,71,0.00,,,0.00,WUHU216HW,2013-09-27 14:49:00,
2013-09-27 09:54:00,73.3,63.0,30.03,NNW,338,6.5,8.1,70,0.00,,,0.00,WUHU216HW,2013-09-27 14:54:00,
2013-09-27 09:59:00,73.4,63.5,30.02,SE,135,4.5,8.1,71,0.00,,,0.00,WUHU216HW,2013-09-27 14:59:00,
2013-09-27 10:04:00,74.0,63.6,30.03,SE,135,5.4,8.1,70,0.00,,,0.00,WUHU216HW,2013-09-27 15:04:00,
2013-09-27 10:09:00,74.5,63.7,30.02,ESE,113,7.4,7.4,69,0.00,,,0.00,WUHU216HW,2013-09-27 15:09:00,
2013-09-27 10:14:00,74.9,63.6,30.03,South,180,4.9,7.4,68,0.00,,,0.00,WUHU216HW,2013-09-27 15:14:00,
2013-09-27 10:19:00,75.2,63.6,30.03,SSE,158,7.4,7.4,67,0.00,,,0.00,WUHU216HW,2013-09-27 15:19:00,
2013-09-27 10:24:00,76.0,63.7,30.03,SE,135,7.6,7.6,66,0.00,,,0.00,WUHU216HW,2013-09-27 15:24:00,
2013-09-27 10:29:00,76.9,64.2,30.02,WSW,248,4.5,7.6,65,0.00,,,0.00,WUHU216HW,2013-09-27 15:29:00,
2013-09-27 10:34:00,77.0,64.8,30.03,SSE,158,9.8,9.8,66,0.00,,,0.00,WUHU216HW,2013-09-27 15:34:00,
2013-09-27 10:39:00,77.0,64.4,30.02,SSE,158,4.3,9.8,65,0.00,,,0.00,WUHU216HW,2013-09-27 15:39:00,
2013-09-27 10:44:00,77.4,64.3,30.02,SE,135,6.3,9.8,64,0.00,,,0.00,WUHU216HW,2013-09-27 15:44:00,
2013-09-27 10:49:00,77.8,64.2,30.02,SSW,203,9.2,9.2,63,0.00,,,0.00,WUHU216HW,2013-09-27 15:49:00,
2013-09-27 10:54:00,78.1,64.1,30.02,East,90,6.0,9.2,62,0.00,,,0.00,WUHU216HW,2013-09-27 15:54:00,
2013-09-27 10:59:00,78.3,64.3,30.02,SSE,158,6.7,6.7,62,0.00,,,0.00,WUHU216HW,2013-09-27 15:59:00,
2013-09-27 11:04:00,79.0,64.9,30.02,SW,225,5.4,6.7,62,0.00,,,0.00,WUHU216HW,2013-09-27 16:04:00,
2013-09-27 11:09:00,79.0,64.1,30.02,South,180,6.0,6.9,60,0.00,,,0.00,WUHU216HW,2013-09-27 16:09:00,
2013-09-27 11:14:00,79.0,64.5,30.02,West,270,3.8,7.6,61,0.00,,,0.00,WUHU216HW,2013-09-27 16:14:00,
2013-09-27 11:19:00,79.6,64.0,30.02,SSE,158,7.8,11.4,59,0.00,,,0.00,WUHU216HW,2013-09-27 16:19:00,
2013-09-27 11:24:00,79.9,63.8,30.01,SSW,203,6.5,11.4,58,0.00,,,0.00,WUHU216HW,2013-09-27 16:24:00,
2013-09-27 11:29:00,79.9,63.8,30.02,SSE,158,13.4,13.4,58,0.00,,,0.00,WUHU216HW,2013-09-27 16:29:00,
2013-09-27 11:34:00,80.5,64.4,30.01,SSE,158,3.8,13.4,58,0.00,,,0.00,WUHU216HW,2013-09-27 16:34:00,
2013-09-27 11:39:00,81.4,64.6,30.01,South,180,5.8,6.3,57,0.00,,,0.00,WUHU216HW,2013-09-27 16:39:00,
2013-09-27 11:44:00,81.5,63.7,30.01,SE,135,6.0,6.3,55,0.00,,,0.00,WUHU216HW,2013-09-27 16:44:00,
2013-09-27 11:49:00,82.3,63.8,30.00,ESE,113,4.7,6.0,54,0.00,,,0.00,WUHU216HW,2013-09-27 16:49:00,
2013-09-27 11:54:00,82.1,63.7,30.00,East,90,7.6,7.6,54,0.00,,,0.00,WUHU216HW,2013-09-27 16:54:00,
2013-09-27 11:59:00,82.8,63.8,30.00,SE,135,6.9,7.6,53,0.00,,,0.00,WUHU216HW,2013-09-27 16:59:00,
2013-09-27 12:04:00,83.0,63.6,30.00,NE,45,5.6,10.5,52,0.00,,,0.00,WUHU216HW,2013-09-27 17:04:00,
2013-09-27 12:09:00,82.6,63.6,30.00,SSE,158,6.3,10.5,53,0.00,,,0.00,WUHU216HW,2013-09-27 17:09:00,
2013-09-27 12:14:00,83.2,63.7,30.00,South,180,6.5,8.7,52,0.00,,,0.00,WUHU216HW,2013-09-27 17:14:00,
2013-09-27 12:19:00,83.2,63.7,30.00,SSE,158,10.7,10.7,52,0.00,,,0.00,WUHU216HW,2013-09-27 17:19:00,
2013-09-27 12:24:00,82.8,63.4,30.00,SSE,158,10.5,10.7,52,0.00,,,0.00,WUHU216HW,2013-09-27 17:24:00,
2013-09-27 12:26:00,82.8,63.4,29.99,SSE,158,10.5,10.7,52,0.00,,,0.00,WUHU216HW,2013-09-27 17:26:00,
2013-09-27 12:31:00,83.2,64.7,30.00,SSE,158,6.3,10.5,54,0.00,,,0.00,WUHU216HW,2013-09-27 17:31:00,
2013-09-27 12:36:00,84.1,65.1,29.99,SE,135,3.4,10.5,53,0.00,,,0.00,WUHU216HW,2013-09-27 17:36:00,
2013-09-27 12:41:00,83.9,63.9,29.99,ESE,113,9.2,9.2,51,0.00,,,0.00,WUHU216HW,2013-09-27 17:41:00,
2013-09-27 12:46:00,83.5,64.1,29.99,ESE,113,5.6,10.3,52,0.00,,,0.00,WUHU216HW,2013-09-27 17:46:00,
2013-09-27 12:51:00,84.2,64.3,29.99,SE,135,4.5,10.3,51,0.00,,,0.00,WUHU216HW,2013-09-27 17:51:00,
2013-09-27 12:56:00,84.4,64.5,29.99,SE,135,3.4,5.6,51,0.00,,,0.00,WUHU216HW,2013-09-27 17:56:00,
2013-09-27 13:01:00,84.4,63.9,29.99,ESE,113,6.9,6.9,50,0.00,,,0.00,WUHU216HW,2013-09-27 18:01:00,
2013-09-27 13:06:00,85.5,64.9,29.98,SE,135,6.0,6.9,50,0.00,,,0.00,WUHU216HW,2013-09-27 18:06:00,
2013-09-27 13:11:00,85.7,65.5,29.98,SSE,158,3.6,6.0,51,0.00,,,0.00,WUHU216HW,2013-09-27 18:11:00,
2013-09-27 13:16:00,86.0,64.7,29.98,SW,225,5.8,6.0,49,0.00,,,0.00,WUHU216HW,2013-09-27 18:16:00,
2013-09-27 13:21:00,86.0,64.7,29.98,East,90,5.8,6.0,49,0.00,,,0.00,WUHU216HW,2013-09-27 18:21:00,
2013-09-27 13:26:00,85.7,65.0,29.98,South,180,14.5,14.5,50,0.00,,,0.00,WUHU216HW,2013-09-27 18:26:00,
2013-09-27 13:31:00,86.4,64.5,29.98,SE,135,7.8,14.5,48,0.00,,,0.00,WUHU216HW,2013-09-27 18:31:00,
2013-09-27 13:36:00,86.4,64.5,29.97,SE,135,12.8,14.5,48,0.00,,,0.00,WUHU216HW,2013-09-27 18:36:00,
2013-09-27 13:41:00,86.0,64.7,29.97,SE,135,3.1,12.8,49,0.00,,,0.00,WUHU216HW,2013-09-27 18:41:00,
2013-09-27 13:46:00,86.8,64.7,29.97,SSW,203,4.7,12.8,48,0.00,,,0.00,WUHU216HW,2013-09-27 18:46:00,
2013-09-27 13:51:00,86.9,64.9,29.97,SSE,158,4.9,6.7,48,0.00,,,0.00,WUHU216HW,2013-09-27 18:51:00,
2013-09-27 13:56:00,87.1,65.1,29.96,ESE,113,6.3,6.7,48,0.00,,,0.00,WUHU216HW,2013-09-27 18:56:00,
2013-09-27 14:01:00,87.3,64.6,29.96,South,180,4.7,6.3,47,0.00,,,0.00,WUHU216HW,2013-09-27 19:01:00,
2013-09-27 14:06:00,87.5,65.3,29.96,South,180,3.4,10.7,48,0.00,,,0.00,WUHU216HW,2013-09-27 19:06:00,
2013-09-27 14:11:00,87.8,65.1,29.96,SSE,158,5.8,10.7,47,0.00,,,0.00,WUHU216HW,2013-09-27 19:11:00,
2013-09-27 14:16:00,88.4,64.9,29.96,SE,135,6.3,6.3,46,0.00,,,0.00,WUHU216HW,2013-09-27 19:16:00,
2013-09-27 14:21:00,88.2,65.3,29.96,East,90,3.6,6.3,47,0.00,,,0.00,WUHU216HW,2013-09-27 19:21:00,
2013-09-27 14:26:00,88.2,64.7,29.95,SW,225,6.3,6.3,46,0.00,,,0.00,WUHU216HW,2013-09-27 19:26:00,
2013-09-27 14:31:00,87.3,64.0,29.95,SE,135,6.0,6.3,46,0.00,,,0.00,WUHU216HW,2013-09-27 19:31:00,
2013-09-27 14:36:00,86.9,64.3,29.95,SE,135,8.9,8.9,47,0.00,,,0.00,WUHU216HW,2013-09-27 19:36:00,
2013-09-27 14:41:00,87.1,64.5,29.95,SE,135,5.8,8.9,47,0.00,,,0.00,WUHU216HW,2013-09-27 19:41:00,
2013-09-27 14:46:00,87.5,64.7,29.95,ESE,113,9.2,9.2,47,0.00,,,0.00,WUHU216HW,2013-09-27 19:46:00,
2013-09-27 14:51:00,88.0,65.3,29.95,SSE,158,3.4,9.2,47,0.00,,,0.00,WUHU216HW,2013-09-27 19:51:00,
2013-09-27 14:56:00,88.0,65.3,29.95,SE,135,4.3,9.2,47,0.00,,,0.00,WUHU216HW,2013-09-27 19:56:00,
2013-09-27 15:01:00,88.0,64.0,29.94,East,90,5.8,5.8,45,0.00,,,0.00,WUHU216HW,2013-09-27 20:01:00,
2013-09-27 15:06:00,88.2,64.7,29.94,SW,225,4.0,5.8,46,0.00,,,0.00,WUHU216HW,2013-09-27 20:06:00,
2013-09-27 15:11:00,88.6,65.1,29.94,ESE,113,9.4,9.4,46,0.00,,,0.00,WUHU216HW,2013-09-27 20:11:00,
2013-09-27 15:16:00,88.0,64.0,29.94,SE,135,8.3,9.4,45,0.00,,,0.00,WUHU216HW,2013-09-27 20:16:00,
2013-09-27 15:21:00,87.7,64.3,29.94,SE,135,7.4,9.4,46,0.00,,,0.00,WUHU216HW,2013-09-27 20:21:00,
2013-09-27 15:26:00,89.1,64.9,29.93,ESE,113,6.0,8.3,45,0.00,,,0.00,WUHU216HW,2013-09-27 20:26:00,
2013-09-27 15:31:00,89.1,64.3,29.93,South,180,8.3,8.3,44,0.00,,,0.00,WUHU216HW,2013-09-27 20:31:00,
2013-09-27 15:36:00,88.9,64.7,29.93,ESE,113,9.2,9.2,45,0.00,,,0.00,WUHU216HW,2013-09-27 20:36:00,
2013-09-27 15:41:00,88.4,63.6,29.93,SSE,158,5.8,9.2,44,0.00,,,0.00,WUHU216HW,2013-09-27 20:41:00,
2013-09-27 15:46:00,88.0,64.0,29.93,SE,135,9.8,9.8,45,0.00,,,0.00,WUHU216HW,2013-09-27 20:46:00,
2013-09-27 15:51:00,87.5,63.5,29.93,ESE,113,4.3,10.5,45,0.00,,,0.00,WUHU216HW,2013-09-27 20:51:00,
2013-09-27 15:56:00,87.8,63.8,29.92,SSW,203,3.1,10.5,45,0.00,,,0.00,WUHU216HW,2013-09-27 20:56:00,
2013-09-27 16:01:00,88.2,63.5,29.92,SE,135,10.5,10.5,44,0.00,,,0.00,WUHU216HW,2013-09-27 21:01:00,
2013-09-27 16:06:00,88.0,64.0,29.92,SSW,203,4.3,10.5,45,0.00,,,0.00,WUHU216HW,2013-09-27 21:06:00,
2013-09-27 16:11:00,88.6,63.2,29.92,South,180,9.2,10.5,43,0.00,,,0.00,WUHU216HW,2013-09-27 21:11:00,
2013-09-27 16:16:00,88.2,62.8,29.92,SE,135,9.8,10.1,43,0.00,,,0.00,WUHU216HW,2013-09-27 21:16:00,
2013-09-27 16:21:00,87.5,62.8,29.92,SE,135,5.4,9.8,44,0.00,,,0.00,WUHU216HW,2013-09-27 21:21:00,
2013-09-27 16:26:00,87.3,62.1,29.92,ESE,113,9.2,9.8,43,0.00,,,0.00,WUHU216HW,2013-09-27 21:26:00,
2013-09-27 16:31:00,87.7,64.3,29.92,SW,225,4.7,9.2,46,0.00,,,0.00,WUHU216HW,2013-09-27 21:31:00,
2013-09-27 16:36:00,88.6,63.2,29.92,SE,135,11.0,11.0,43,0.00,,,0.00,WUHU216HW,2013-09-27 21:36:00,
2013-09-27 16:41:00,88.2,62.8,29.92,SSE,158,6.9,11.0,43,0.00,,,0.00,WUHU216HW,2013-09-27 21:41:00,
2013-09-27 16:46:00,88.0,62.7,29.92,SE,135,4.5,11.0,43,0.00,,,0.00,WUHU216HW,2013-09-27 21:46:00,
2013-09-27 16:51:00,87.1,62.6,29.92,East,90,7.2,13.4,44,0.00,,,0.00,WUHU216HW,2013-09-27 21:51:00,
2013-09-27 16:56:00,86.8,62.8,29.92,ENE,68,3.4,13.4,45,0.00,,,0.00,WUHU216HW,2013-09-27 21:56:00,
2013-09-27 17:01:00,86.4,62.6,29.92,SSE,158,5.4,7.2,45,0.00,,,0.00,WUHU216HW,2013-09-27 22:01:00,
2013-09-27 17:06:00,85.9,62.6,29.92,SSE,158,6.0,6.3,46,0.00,,,0.00,WUHU216HW,2013-09-27 22:06:00,
2013-09-27 17:11:00,85.7,63.1,29.92,SE,135,6.3,7.6,47,0.00,,,0.00,WUHU216HW,2013-09-27 22:11:00,
2013-09-27 17:16:00,85.3,63.5,29.92,SE,135,4.0,7.6,48,0.00,,,0.00,WUHU216HW,2013-09-27 22:16:00,
2013-09-27 17:21:00,85.3,63.5,29.92,WNW,293,2.2,6.3,48,0.00,,,0.00,WUHU216HW,2013-09-27 22:21:00,
2013-09-27 17:26:00,85.7,63.1,29.92,ESE,113,12.5,12.5,47,0.00,,,0.00,WUHU216HW,2013-09-27 22:26:00,
2013-09-27 17:31:00,85.7,63.1,29.92,SSE,158,4.9,12.5,47,0.00,,,0.00,WUHU216HW,2013-09-27 22:31:00,
2013-09-27 17:36:00,86.0,63.5,29.92,SE,135,4.5,8.7,47,0.00,,,0.00,WUHU216HW,2013-09-27 22:36:00,
2013-09-27 17:41:00,85.9,63.3,29.92,SE,135,4.5,4.9,47,0.00,,,0.00,WUHU216HW,2013-09-27 22:41:00,
2013-09-27 17:46:00,86.2,63.6,29.92,SE,135,8.3,8.3,47,0.00,,,0.00,WUHU216HW,2013-09-27 22:46:00,
2013-09-27 17:51:00,86.2,63.6,29.92,SE,135,10.5,10.5,47,0.00,,,0.00,WUHU216HW,2013-09-27 22:51:00,
2013-09-27 17:56:00,86.0,64.1,29.92,NE,45,5.8,10.5,48,0.00,,,0.00,WUHU216HW,2013-09-27 22:56:00,
2013-09-27 18:01:00,85.5,63.6,29.92,SE,135,8.9,10.5,48,0.00,,,0.00,WUHU216HW,2013-09-27 23:01:00,
2013-09-27 18:06:00,84.8,63.5,29.92,SSE,158,3.4,10.3,49,0.00,,,0.00,WUHU216HW,2013-09-27 23:06:00,
2013-09-27 18:11:00,84.4,62.7,29.92,SSE,158,8.3,10.3,48,0.00,,,0.00,WUHU216HW,2013-09-27 23:11:00,
2013-09-27 18:16:00,84.1,62.9,29.92,SE,135,6.5,8.3,49,0.00,,,0.00,WUHU216HW,2013-09-27 23:16:00,
2013-09-27 18:21:00,83.2,62.6,29.92,SSE,158,6.5,8.3,50,0.00,,,0.00,WUHU216HW,2013-09-27 23:21:00,
2013-09-27 18:26:00,83.0,63.0,29.92,SSE,158,6.3,7.4,51,0.00,,,0.00,WUHU216HW,2013-09-27 23:26:00,
2013-09-27 18:31:00,82.8,62.8,29.92,SE,135,6.0,9.6,51,0.00,,,0.00,WUHU216HW,2013-09-27 23:31:00,
2013-09-27 18:36:00,82.4,63.0,29.92,ESE,113,5.4,9.6,52,0.00,,,0.00,WUHU216HW,2013-09-27 23:36:00,
2013-09-27 18:41:00,81.9,62.5,29.92,SE,135,6.0,6.0,52,0.00,,,0.00,WUHU216HW,2013-09-27 23:41:00,
2013-09-27 18:46:00,81.7,62.3,29.92,SE,135,5.4,6.0,52,0.00,,,0.00,WUHU216HW,2013-09-27 23:46:00,
2013-09-27 18:51:00,81.4,62.6,29.92,ESE,113,4.7,6.0,53,0.00,,,0.00,WUHU216HW,2013-09-27 23:51:00,
2013-09-27 18:56:00,81.2,62.9,29.92,SE,135,5.1,6.7,54,0.00,,,0.00,WUHU216HW,2013-09-27 23:56:00,
2013-09-27 19:01:00,80.8,63.1,29.92,SE,135,6.0,7.6,55,0.00,,,0.00,WUHU216HW,2013-09-28 00:01:00,
2013-09-27 19:06:00,80.5,62.7,29.92,SE,135,5.1,7.6,55,0.00,,,0.00,WUHU216HW,2013-09-28 00:06:00,
2013-09-27 19:11:00,80.3,63.1,29.92,SSE,158,3.1,6.0,56,0.00,,,0.00,WUHU216HW,2013-09-28 00:11:00,
2013-09-27 19:16:00,79.7,63.2,29.92,East,90,5.6,5.6,57,0.00,,,0.00,WUHU216HW,2013-09-28 00:16:00,
2013-09-27 19:21:00,79.6,63.0,29.92,SSE,158,5.1,5.6,57,0.00,,,0.00,WUHU216HW,2013-09-28 00:21:00,
2013-09-27 19:26:00,79.4,63.4,29.92,SE,135,5.6,5.6,58,0.00,,,0.00,WUHU216HW,2013-09-28 00:26:00,
2013-09-27 19:31:00,78.8,62.8,29.92,SE,135,5.8,6.5,58,0.00,,,0.00,WUHU216HW,2013-09-28 00:31:00,
2013-09-27 19:36:00,78.7,63.2,29.92,ESE,113,3.6,6.5,59,0.00,,,0.00,WUHU216HW,2013-09-28 00:36:00,
2013-09-27 19:41:00,78.5,63.0,29.92,SE,135,4.7,5.8,59,0.00,,,0.00,WUHU216HW,2013-09-28 00:41:00,
2013-09-27 19:46:00,78.1,62.6,29.92,SE,135,6.7,6.7,59,0.00,,,0.00,WUHU216HW,2013-09-28 00:46:00,
2013-09-27 19:51:00,77.9,63.0,29.92,SE,135,3.8,6.7,60,0.00,,,0.00,WUHU216HW,2013-09-28 00:51:00,
2013-09-27 19:56:00,77.8,62.8,29.92,ESE,113,4.9,6.7,60,0.00,,,0.00,WUHU216HW,2013-09-28 00:56:00,
2013-09-27 20:01:00,77.4,62.9,29.92,ESE,113,4.0,4.9,61,0.00,,,0.00,WUHU216HW,2013-09-28 01:01:00,
2013-09-27 20:06:00,77.2,62.7,29.93,SE,135,4.0,4.9,61,0.00,,,0.00,WUHU216HW,2013-09-28 01:06:00,
2013-09-27 20:11:00,76.9,62.8,29.93,ESE,113,7.4,9.4,62,0.00,,,0.00,WUHU216HW,2013-09-28 01:11:00,
2013-09-27 20:16:00,76.7,62.6,29.93,SE,135,6.3,9.4,62,0.00,,,0.00,WUHU216HW,2013-09-28 01:16:00,
2013-09-27 20:21:00,76.7,63.1,29.92,SE,135,4.3,7.4,63,0.00,,,0.00,WUHU216HW,2013-09-28 01:21:00,
2013-09-27 20:26:00,76.5,62.9,29.92,ESE,113,6.3,7.6,63,0.00,,,0.00,WUHU216HW,2013-09-28 01:26:00,
2013-09-27 20:31:00,76.3,62.8,29.92,ESE,113,4.3,7.6,63,0.00,,,0.00,WUHU216HW,2013-09-28 01:31:00,
2013-09-27 20:36:00,76.0,62.9,29.92,SE,135,5.1,6.3,64,0.00,,,0.00,WUHU216HW,2013-09-28 01:36:00,
2013-09-27 20:41:00,76.0,62.9,29.92,SE,135,8.1,8.1,64,0.00,,,0.00,WUHU216HW,2013-09-28 01:41:00,
2013-09-27 20:46:00,75.8,63.2,29.93,SE,135,6.0,8.1,65,0.00,,,0.00,WUHU216HW,2013-09-28 01:46:00,
2013-09-27 20:51:00,75.6,63.0,29.93,SE,135,8.5,8.5,65,0.00,,,0.00,WUHU216HW,2013-09-28 01:51:00,
2013-09-27 20:56:00,75.4,62.8,29.93,ESE,113,7.2,8.5,65,0.00,,,0.00,WUHU216HW,2013-09-28 01:56:00,
2013-09-27 21:01:00,75.2,63.1,29.93,SSE,158,5.1,8.5,66,0.00,,,0.00,WUHU216HW,2013-09-28 02:01:00,
2013-09-27 21:06:00,75.2,63.1,29.93,SE,135,4.5,7.2,66,0.00,,,0.00,WUHU216HW,2013-09-28 02:06:00,
2013-09-27 21:11:00,75.1,62.9,29.93,ESE,113,6.3,6.3,66,0.00,,,0.00,WUHU216HW,2013-09-28 02:11:00,
2013-09-27 21:16:00,74.9,62.7,29.93,SSE,158,5.1,6.9,66,0.00,,,0.00,WUHU216HW,2013-09-28 02:16:00,
2013-09-27 21:21:00,74.7,63.0,29.93,NE,45,5.8,6.9,67,0.00,,,0.00,WUHU216HW,2013-09-28 02:21:00,
2013-09-27 21:26:00,74.3,63.1,29.93,SSE,158,5.1,5.8,68,0.00,,,0.00,WUHU216HW,2013-09-28 02:26:00,
2013-09-27 21:31:00,74.2,62.9,29.93,ESE,113,5.4,5.8,68,0.00,,,0.00,WUHU216HW,2013-09-28 02:31:00,
2013-09-27 21:36:00,74.0,62.8,29.93,SE,135,6.5,6.5,68,0.00,,,0.00,WUHU216HW,2013-09-28 02:36:00,
2013-09-27 21:41:00,73.8,63.1,29.94,SE,135,4.0,6.5,69,0.00,,,0.00,WUHU216HW,2013-09-28 02:41:00,
2013-09-27 21:46:00,73.8,63.1,29.94,ESE,113,6.9,6.9,69,0.00,,,0.00,WUHU216HW,2013-09-28 02:46:00,
2013-09-27 21:51:00,73.4,62.7,29.94,ESE,113,4.7,6.9,69,0.00,,,0.00,WUHU216HW,2013-09-28 02:51:00,
2013-09-27 21:56:00,73.4,63.2,29.94,SE,135,4.7,6.9,70,0.00,,,0.00,WUHU216HW,2013-09-28 02:56:00,
2013-09-27 22:01:00,73.3,63.0,29.94,ESE,113,6.3,6.3,70,0.00,,,0.00,WUHU216HW,2013-09-28 03:01:00,
2013-09-27 22:06:00,73.3,63.0,29.94,SE,135,3.6,6.3,70,0.00,,,0.00,WUHU216HW,2013-09-28 03:06:00,
2013-09-27 22:11:00,73.1,63.2,29.94,SE,135,5.1,8.3,71,0.00,,,0.00,WUHU216HW,2013-09-28 03:11:00,
2013-09-27 22:16:00,73.1,63.2,29.94,SE,135,9.4,9.4,71,0.00,,,0.00,WUHU216HW,2013-09-28 03:16:00,
2013-09-27 22:21:00,72.9,63.0,29.94,ESE,113,4.5,9.4,71,0.00,,,0.00,WUHU216HW,2013-09-28 03:21:00,
2013-09-27 22:26:00,72.7,62.8,29.93,ESE,113,3.8,9.4,71,0.00,,,0.00,WUHU216HW,2013-09-28 03:26:00,
2013-09-27 22:31:00,72.5,62.6,29.94,SSE,158,5.1,6.3,71,0.00,,,0.00,WUHU216HW,2013-09-28 03:31:00,
2013-09-27 22:36:00,72.4,62.5,29.94,ESE,113,5.1,6.3,71,0.00,,,0.00,WUHU216HW,2013-09-28 03:36:00,
2013-09-27 22:41:00,72.4,62.5,29.94,SE,135,4.5,5.1,71,0.00,,,0.00,WUHU216HW,2013-09-28 03:41:00,
2013-09-27 22:46:00,72.4,62.5,29.94,SE,135,3.8,5.1,71,0.00,,,0.00,WUHU216HW,2013-09-28 03:46:00,
2013-09-27 22:51:00,72.2,62.6,29.94,ESE,113,4.5,4.5,72,0.00,,,0.00,WUHU216HW,2013-09-28 03:51:00,
2013-09-27 22:56:00,72.2,62.3,29.93,SE,135,5.8,5.8,71,0.00,,,0.00,WUHU216HW,2013-09-28 03:56:00,
2013-09-27 23:01:00,72.2,62.3,29.94,SSE,158,5.1,5.8,71,0.00,,,0.00,WUHU216HW,2013-09-28 04:01:00,
2013-09-27 23:06:00,72.0,62.1,29.94,SSE,158,4.3,5.8,71,0.00,,,0.00,WUHU216HW,2013-09-28 04:06:00,
2013-09-27 23:11:00,72.0,62.1,29.93,SE,135,4.5,5.1,71,0.00,,,0.00,WUHU216HW,2013-09-28 04:11:00,
2013-09-27 23:16:00,72.0,62.1,29.93,SSE,158,6.7,6.7,71,0.00,,,0.00,WUHU216HW,2013-09-28 04:16:00,
2013-09-27 23:21:00,72.0,61.7,29.93,East,90,4.0,6.7,70,0.00,,,0.00,WUHU216HW,2013-09-28 04:21:00,
2013-09-27 23:26:00,71.8,61.6,29.92,ESE,113,5.6,6.7,70,0.00,,,0.00,WUHU216HW,2013-09-28 04:26:00,
2013-09-27 23:31:00,71.6,61.4,29.92,South,180,4.9,5.6,70,0.00,,,0.00,WUHU216HW,2013-09-28 04:31:00,
2013-09-27 23:36:00,71.6,61.4,29.92,SE,135,7.8,7.8,70,0.00,,,0.00,WUHU216HW,2013-09-28 04:36:00,
2013-09-27 23:42:00,71.6,61.4,29.92,ESE,113,7.4,7.8,70,0.00,,,0.00,WUHU216HW,2013-09-28 04:42:00,
2013-09-27 23:47:00,71.6,61.4,29.92,SE,135,4.3,7.8,70,0.00,,,0.00,WUHU216HW,2013-09-28 04:47:00,
2013-09-27 23:52:00,71.6,61.4,29.91,SE,135,3.4,6.5,70,0.00,,,0.00,WUHU216HW,2013-09-28 04:52:00,
2013-09-27 23:57:00,71.6,61.4,29.91,SSE,158,3.1,4.3,70,0.00,,,0.00,WUHU216HW,2013-09-28 04:57:00,